AirNav   TITAN Aviation Fuels
 
 618 users online  

KCEA Cessna Aircraft Field Airport
Wichita, Kansas, USA

GOING TO WICHITA?


FAA INFORMATION EFFECTIVE 11 AUGUST 2022

Location

FAA Identifier: CEA
Lat/Long: 37-38-54.9540N 097-15-02.1580W
37-38.915900N 097-15.035967W
37.6485983,-97.2505994
(estimated)
Elevation: 1378 ft. / 420.0 m (surveyed)
Variation: 08E (1980)
From city: 4 miles SE of WICHITA, KS
Time zone: UTC -5 (UTC -6 during Standard Time)
Zip code: 67210

Airport Operations

Airport use: Open to the public
Activation date: 04/1940
Control tower: no
ARTCC: KANSAS CITY CENTER
FSS: WICHITA FLIGHT SERVICE STATION
NOTAMs facility: ICT (NOTAM-D service available)
Attendance: UNATNDD
Wind indicator: yes
Segmented circle: yes

Airport Communications

CTAF: 122.9
WICHITA APPROACH: 134.8
WICHITA DEPARTURE: 134.8
CLEARANCE DELIVERY: 125.0
WX AWOS-3PT at BEC (3 nm NE): 119.45 (316-515-7116)
WX ASOS at AAO (6 nm N): 134.025 (316-636-2541)
WX AWOS-3P at 3AU (8 nm E): 124.175 (316-733-6696)
WX ASOS at ICT (9 nm W): PHONE 316-945-8022
WX AWOS-2 at 1K1 (10 nm NE): 118.3 (316-530-6004)

Nearby radio navigation aids

VOR radial/distance  VOR name  Freq  Var
ICTr103/16.8WICHITA VORTAC113.8007E
HUTr119/38.6HUTCHINSON VOR/DME116.8004E

 
NDB name  Hdg/Dist  Freq  Var  ID
PICHE063/10.633204EIC .. -.-.

Airport Services

Airframe service: NONE
Powerplant service: NONE
Bottled oxygen: NONE
Bulk oxygen: NONE

Runway Information

Runway 17/35

Dimensions: 3873 x 40 ft. / 1180 x 12 m
Surface: asphalt, in good condition
RUNWAY 17  RUNWAY 35
Latitude: 37-39.234483N37-38.596317N
Longitude: 097-15.035200W097-15.035750W
Elevation: 1373.0 ft.1373.0 ft.
Traffic pattern: leftright
Runway heading: 172 magnetic, 180 true352 magnetic, 000 true
Displaced threshold: 150 ft.150 ft.
Markings: basic, in good conditionbasic, in good condition
Obstructions: 10 ft. road, 252 ft. from runway, 5:1 slope to clear
APCH RATIO 40:1 TO DSPLCD THLD.
13 ft. road, 210 ft. from runway
8 FT FENCE 170 FT FM RY END.

Airport Ownership and Management from official FAA records

Ownership: Privately-owned
Owner: CESSNA AIRCRAFT COMPANY
10511 EAST CENTRAL
WICHITA, KS 67277
Phone (316) 515-6000
Manager: TODD BAYLESS
10511 EAST CENTRAL
WICHITA, KS 67201
Phone (316) 515-8365

Airport Operational Statistics

Aircraft based on the field: 16
Single engine airplanes: 15
Multi engine airplanes: 1
    
Aircraft operations: 100/year *
100% transient general aviation
* for 12-month period ending 19 July 2019

Additional Remarks

ACFT OPNS SHOULD COORDINATE WITH MC CONNELL AFB PRIOR TO ARRIVAL AND DEP - CONTROL TOWER 127.25.
RWY 17R/35L USED ONLY BY CESSNA PERSONNEL; CLOSED TO PUBLIC.
FOR CD CTC WICHITA APCH AT 316-350-1520.

Instrument Procedures

NOTE: All procedures below are presented as PDF files. If you need a reader for these files, you should download the free Adobe Reader.

NOT FOR NAVIGATION. Please procure official charts for flight.
FAA instrument procedures published for use from 11 August 2022 at 0901Z to 08 September 2022 at 0900z.

 
IAPs - Instrument Approach Procedures
RNAV (GPS)-D   download (190KB)
VOR-C   download (191KB)

Other nearby airports with instrument procedures:

KIAB - Mc Connell Air Force Base (2 nm SW)
KBEC - Beech Factory Airport (3 nm NE)
KAAO - Colonel James Jabara Airport (6 nm N)
3AU - Augusta Municipal Airport (8 nm E)
KICT - Wichita Dwight D Eisenhower National Airport (9 nm W)
1K1 - Lloyd Stearman Field Airport (10 nm NE)
 
Loc | Ops | Rwys | IFR | FBO | Links
Com | Nav | Svcs | Stats | Notes
Area around KCEA (Cessna Aircraft Field Airport)
 
Road maps at: MapQuest Bing Google
 
Aerial photo
WARNING: Photo may not be current or correct
Aerial photo of KCEA (Cessna Aircraft Field Airport)
Do you have a better or more recent aerial photo of Cessna Aircraft Field Airport that you would like to share? If so, please send us your photo.

 
Sectional chart

 
Airport distance calculator
Flying to Cessna Aircraft Field Airport? Find the distance to fly.

From to KCEA

Sunrise and sunset
Times for 17-Aug-2022
 Local
(UTC-5)
 Zulu
(UTC)
Morning civil twilight06:2011:20
Sunrise06:4711:47
Sunset20:1901:19
Evening civil twilight20:4601:46

Current date and time
Zulu (UTC)  17-Aug-2022 07:16:25
Local (UTC-5)  17-Aug-2022 02:16:25
 
METAR
KIAB 
2nm S 
170655Z AUTO 05008KT 10SM OVC009 20/18 A3003 RMK AO2 SLPNO T02040183 $
KBEC 
3nm NE 
170535Z AUTO 03010KT 10SM OVC009 20/18 A3005 RMK AO2 T02000178
KAAO 
6nm N 
170454Z AUTO 04009KT 10SM OVC007 20/18 A3005 RMK AO2 SLP163 T02000183
K3AU 
8nm E 
170655Z AUTO 00000KT 10SM BKN010 OVC017 20/17 A3006 RMK AO2
KICT 
9nm W 
170553Z 05009KT 10SM OVC010 21/18 A3005 RMK AO2 SLP161 T02060183 10244 20206 403390206 51008
K1K1 
10nm NE 
170655Z AUTO 06003KT 10SM OVC009 20/18 A3007 RMK AO2 T01970176
TAF
KIAB 
2nm S 
170231Z 1702/1808 05010G20KT 9999 OVC010 QNH2998INS TEMPO 1702/1706 OVC006 BECMG 1710/1711 04010G15KT 9999 VCSH OVC016 QNH3003INS BECMG 1717/1718 06012KT 9999 NSW BKN045 QNH3006INS BECMG 1801/1802 06012KT 9999 SCT060 SCT120 QNH3007INS TX26/1719Z TN17/1710Z
KICT 
9nm W 
170520Z 1706/1806 03010KT P6SM OVC009 FM171500 03009KT P6SM OVC014 FM171700 04009KT P6SM OVC020 FM171900 05009KT P6SM BKN040 FM180400 09004KT P6SM FEW180
NOTAMs
Click for the latest NOTAMs
NOTAMs are issued by the DoD/FAA and will open in a separate window not controlled by AirNav.

 

 
 

Would you like to see your business listed on this page?

 If your business provides an interesting product or service to pilots, flight crews, aircraft, or users of the Cessna Aircraft Field Airport, you should consider listing it here.  To start the listing process, click on the button below
 
Add a business
 

Other Pages about Cessna Aircraft Field Airport

Update a link
 
Copyright © AirNav, LLC. All rights reserved. Privacy Policy  Contact